This demonstration page uses our WeatherBlox Daily Observations layout. Learn more.

Left ArrowRight Arrow

39.12711, -84.51439

Hourly Observations for September 24, 2016

Temp ( °F °C ) Dew Point ( °F °C ) Humidity (%) Winds ( mph kmh ) Pressure ( in mb ) Visibility ( mi km ) Precip ( " mm )
12:53 am 00:53 Clear with Mist and Fog 66 18.9 66 18.9 100 100 Calm 30.06 1018 3 4 0.00 0.00
1:01 am 01:01 Clear with Mist and Fog 66 18.9 66 18.9 100 100 Calm 30.06 1018 4 6 0.00 0.00
1:30 am 01:30 Clear with Mist and Fog 64 17.8 64 17.8 100 100 Calm 30.06 1018 3 4 0.00 0.00
1:53 am 01:53 Clear with Mist and Fog 65 18.3 65 18.3 100 100 Calm 30.06 1018 6 10 0.00 0.00
2:32 am 02:32 Clear with Mist and Fog 64 18 64 18 100 100 Calm 30.06 1018 3 4 0.00 0.00
2:41 am 02:41 Clear with Mist and Fog 65 18.3 65 18.3 100 100 Calm 30.06 1018 1 2 0.00 0.00
2:48 am 02:48 Clear with Mist and Fog 66 19 66 19 100 100 Calm 30.06 1018 3 5 0.00 0.00
2:53 am 02:53 Clear with Mist and Fog 66 18.9 66 18.9 100 100 Calm 30.06 1018 3 5 0.00 0.00
3:22 am 03:22 Clear with Mist and Fog 65 18.3 65 18.3 100 100 Calm 30.06 1018 2 2 0.00 0.00
3:30 am 03:30 Clear with Fog 64 18 64 18 100 100 Calm 30.06 1018 1 1 0.00 0.00
3:53 am 03:53 Mostly Cloudy with Mist and Fog 65 18.3 65 18.3 100 100 Calm 30.06 1018 1 2 0.00 0.00
4:01 am 04:01 Clear with Mist and Fog 65 18.3 65 18.3 100 100 Calm 30.06 1018 1 2 0.00 0.00
4:15 am 04:15 Clear with Mist and Fog 65 18.3 65 18.3 100 100 Calm 30.06 1018 2 3 0.00 0.00
4:27 am 04:27 Clear with Mist and Fog 64 17.8 64 17.8 100 100 NE 3 6 30.06 1018 4 6 0.00 0.00
4:50 am 04:50 Clear with Mist and Fog 64 18 64 18 100 100 Calm 30.06 1018 3 4 0.00 0.00
4:53 am 04:53 Clear with Mist and Fog 64 17.8 64 17.8 100 100 Calm 30.08 1019 3 4 0.00 0.00
5:00 am 05:00 Clear with Mist and Fog 64 18 64 18 100 100 NNE 5 7 30.06 1018 4 6 0.00 0.00
5:53 am 05:53 Clear with Mist and Fog 65 18.3 65 18.3 100 100 Calm 30.09 1019 4 6 0.00 0.00
6:36 am 06:36 Mostly Cloudy with Mist and Fog 63 17 63 17 100 100 Calm 30.09 1019 3 5 0.00 0.00
6:53 am 06:53 Cloudy with Mist and Fog 66 18.9 66 18.9 100 100 NNE 3 6 30.11 1020 5 8 0.00 0.00
7:49 am 07:49 Cloudy with Mist and Fog 66 19 66 19 100 100 Calm 30.12 1020 3 5 0.00 0.00
7:53 am 07:53 Cloudy with Mist and Fog 67 19.4 67 19.4 100 100 Calm 30.13 1020 3 5 0.00 0.00
8:46 am 08:46 Partly Cloudy with Mist and Fog 70 21 70 21 100 100 Calm 30.12 1020 4 6 0.00 0.00
8:53 am 08:53 Partly Cloudy with Mist and Fog 70 21.1 69 20.6 97 97 Calm 30.14 1021 4 6 0.00 0.00
9:53 am 09:53 Partly Cloudy with Mist and Fog 73 22.8 69 20.6 87 87 NE 7 11 30.15 1021 5 8 0.00 0.00
10:53 am 10:53 Hazy 75 23.9 69 20.6 82 82 ENE 8 13 30.15 1021 6 10 0.00 0.00
11:53 am 11:53 Mostly Sunny 78 25.6 69 20.6 74 74 ENE 9 15 30.15 1021 8 13 0.00 0.00
12:53 pm 12:53 Mostly Sunny 79 26.1 69 20.6 72 72 N 8 13 30.15 1021 8 13 0.00 0.00
1:53 pm 13:53 Partly Cloudy 80 26.7 69 20.6 69 69 NNE 8 13 30.14 1021 8 13 0.00 0.00
2:53 pm 14:53 Sunny 80 26.7 69 20.6 69 69 ENE 8 13 30.12 1020 8 13 0.00 0.00
3:53 pm 15:53 Sunny 83 28.3 70 21.1 65 65 NNE 6 9 30.11 1020 9 14 0.00 0.00
4:53 pm 16:53 Sunny 82 27.8 69 20.6 65 65 NE 7 11 30.09 1019 10 16 0.00 0.00
5:53 pm 17:53 Sunny 82 27.8 69 20.6 65 65 ENE 7 11 30.09 1019 9 14 0.00 0.00
6:53 pm 18:53 Sunny 79 26.1 69 20.6 72 72 NE 9 15 30.09 1019 9 14 0.00 0.00
7:53 pm 19:53 Clear 74 23.3 68 20 82 82 ENE 5 7 30.09 1019 10 16 0.00 0.00
8:53 pm 20:53 Clear 71 21.7 69 20.6 94 94 Calm 30.10 1019 8 13 0.00 0.00
9:53 pm 21:53 Clear 69 20.6 69 20.6 100 100 Calm 30.11 1020 7 11 0.00 0.00
10:53 pm 22:53 Clear with Mist and Fog 68 20 68 20 100 100 Calm 30.11 1020 5 8 0.00 0.00
11:53 pm 23:53 Clear with Mist and Fog 67 19.4 67 19.4 100 100 Calm 30.12 1020 6 10 0.00 0.00

Powered by AerisWeather